Bar Harbor, ME

2:12 AM EDT on October 21, 2019 (GMT -0400)
Hancock County-Bar Harbor

Weather History for KBHB - August, 2019

Change the Weather History Date:

Tuesday, August 6, 2019

  Actual Average Record
Temperature  
Mean Temperature 65 °F -  
Max Temperature 73 °F 77 °F 88 °F (1955)
Min Temperature 57 °F 56 °F 45 °F (1948)
Growing Degree Days 15 (Base 50)    
Moisture  
Dew Point 59 °F    
Average Humidity 80    
Maximum Humidity 100    
Minimum Humidity 53    
Precipitation  
Precipitation 0.00 in - - ()
Sea Level Pressure  
Sea Level Pressure 29.94 in    
Wind  
Wind Speed 7 mph (SSW)    
Max Wind Speed 16 mph    
Max Gust Speed -    
Visibility 9 miles    
Events      
Averages and records for this station are not official NWS values.
T = Trace of Precipitation, MM = Missing Value Source: NWS Daily Summary

Daily Weather History Graph

Daily Weather History Graph

Search for Another Location

Airport or City:

Astronomy

Aug. 06, 2019 Rise Set
Actual Time 5:25 AM EDT 7:52 PM EDT
Civil Twilight 4:52 AM EDT 8:24 PM EDT
Nautical Twilight 4:12 AM EDT 9:05 PM EDT
Astronomical Twilight 3:25 AM EDT 9:51 PM EDT
Moon 12:01 PM EDT (8/6) 11:19 PM EDT (8/6)
Length of Visible Light 15h 31m
Length of Day
14h 26m
Waxing Crescent, 38% of the Moon is Illuminated
Aug 6
Waxing Crescent
Aug 7
First Quarter
Aug 15
Full
Aug 23
Last Quarter
Aug 30
New

Hourly Weather History & Observations

Time (EDT) Temp. Dew Point Humidity Pressure Visibility Wind Dir Wind Speed Gust Speed Precip Events Conditions
12:56 AM 61.0 °F 57.9 °F 90% 29.97 in 10.0 mi SSW 6.9 mph - N/A   Clear
1:56 AM 60.1 °F 57.9 °F 93% 29.97 in 10.0 mi SSW 5.8 mph - N/A   Clear
2:56 AM 60.1 °F 59.0 °F 96% 29.95 in 10.0 mi SSW 8.1 mph - N/A   Clear
3:56 AM 60.1 °F 59.0 °F 96% 29.96 in 10.0 mi SSW 5.8 mph - N/A   Clear
4:56 AM 59.0 °F 57.0 °F 93% 29.97 in 10.0 mi Calm Calm - N/A   Clear
5:49 AM 57.2 °F 57.2 °F 100% 29.96 in 1.2 mi Calm Calm - N/A   Clear
5:56 AM 57.9 °F 57.0 °F 97% 29.97 in 1.2 mi SSW 3.5 mph - N/A   Clear
6:10 AM 57.2 °F 55.4 °F 94% 29.96 in 10.0 mi Calm Calm - N/A   Clear
6:56 AM 64.0 °F 61.0 °F 90% 29.97 in 10.0 mi SSW 9.2 mph - N/A   Clear
7:56 AM 66.9 °F 63.0 °F 87% 29.96 in 10.0 mi SSW 10.4 mph - N/A   Clear
8:39 AM 68.0 °F 64.4 °F 88% 29.96 in 10.0 mi SSW 12.7 mph - N/A   Partly Cloudy
8:56 AM 69.1 °F 64.0 °F 84% 29.96 in 10.0 mi SSW 12.7 mph - N/A   Scattered Clouds
9:56 AM 70.0 °F 64.0 °F 81% 29.97 in 10.0 mi SW 12.7 mph - N/A   Clear
10:56 AM 72.0 °F 64.0 °F 76% 29.96 in 10.0 mi SSW 10.4 mph - N/A   Clear
11:56 AM 73.9 °F 63.0 °F 68% 29.95 in 10.0 mi SSW 15.0 mph - N/A   Clear
12:56 PM 73.9 °F 63.0 °F 68% 29.94 in 10.0 mi SSW 15.0 mph - N/A   Clear
1:56 PM 73.9 °F 62.1 °F 66% 29.93 in 10.0 mi SSW 16.1 mph - N/A   Clear
2:56 PM 73.0 °F 60.1 °F 64% 29.91 in 10.0 mi SSW 12.7 mph - N/A   Clear
3:56 PM 73.0 °F 55.9 °F 55% 29.91 in 10.0 mi SSW 10.4 mph - N/A   Clear
4:56 PM 72.0 °F 54.0 °F 53% 29.91 in 10.0 mi SSW 6.9 mph - N/A   Clear
5:56 PM 70.0 °F 55.9 °F 61% 29.91 in 10.0 mi South 6.9 mph - N/A   Clear
6:56 PM 66.9 °F 57.0 °F 70% 29.91 in 10.0 mi SSE 4.6 mph - N/A   Clear
7:56 PM 64.0 °F 57.0 °F 78% 29.90 in 10.0 mi SSE 6.9 mph - N/A   Clear
8:56 PM 63.0 °F 57.0 °F 81% 29.91 in 10.0 mi SSE 3.5 mph - N/A   Clear
9:56 PM 63.0 °F 57.0 °F 81% 29.91 in 10.0 mi SSE 5.8 mph - N/A   Mostly Cloudy
10:56 PM 64.0 °F 57.9 °F 80% 29.90 in 10.0 mi SE 4.6 mph - N/A   Overcast
11:56 PM 64.0 °F 57.9 °F 80% 29.89 in 10.0 mi NNE 4.6 mph - N/A   Overcast